Point Hope, AK

7:14 AM AKDT on May 25, 2017 (GMT -0800)
Point Hope

Weather History for PAPO - June, 2013

Change the Weather History Date:

Friday, June 21, 2013

  Actual Average Record
Temperature  
Mean Temperature 43 °F -  
Max Temperature 51 °F 42 °F 55 °F (2015)
Min Temperature 35 °F 35 °F 33 °F (1998)
Degree Days  
Heating Degree Days 22    
Moisture  
Dew Point 38 °F    
Average Humidity 82    
Maximum Humidity 93    
Minimum Humidity 71    
Precipitation  
Precipitation 0.00 in - - ()
Sea Level Pressure  
Sea Level Pressure 29.84 in    
Wind  
Wind Speed 9 mph (SE)    
Max Wind Speed 14 mph    
Max Gust Speed -    
Visibility 9 miles    
Events      
Averages and records for this station are not official NWS values.
T = Trace of Precipitation, MM = Missing Value Source: NWS Daily Summary

Daily Weather History Graph

Daily Weather History Graph

Search for Another Location

Airport or City:

Trip Planner

Search our weather history database for the weather conditions in past years. The results will help you decide how hot, cold, wet, or windy it might be!

Date:

Astronomy

Dec. 31, 1969 Rise Set
Actual Time Sun does not set Sun does not set
Civil Twilight Sun does not set Sun does not set
Nautical Twilight Sun does not set Sun does not set
Astronomical Twilight Sun does not set Sun does not set
Moon No Moon Rise 3:00 AM AKDT (6/21)
Length of Visible Light 24h 00m
Length of Day
24h 00m
Waxing Gibbous, 96% of the Moon is Illuminated
Jun 21
Waxing Gibbous
Jun 23
Full
Jun 29
Last Quarter
Jul 7
New
Jul 15
First Quarter

Hourly Weather History & Observations

Time (AKDT) Temp. Windchill Dew Point Humidity Pressure Visibility Wind Dir Wind Speed Gust Speed Precip Events Conditions
12:16 AM 39.2 °F 32.0 °F 35.6 °F 87% 29.84 in 9.0 mi SE 11.5 mph - N/A   Mostly Cloudy
12:36 AM 39.2 °F 32.0 °F 35.6 °F 87% 29.85 in 1.5 mi SSE 11.5 mph - N/A   Mostly Cloudy
12:56 AM 39.2 °F 32.0 °F 35.6 °F 87% 29.84 in 1.8 mi SSE 11.5 mph - N/A   Overcast
1:16 AM 37.4 °F 29.8 °F 35.6 °F 93% 29.85 in 1.5 mi SSE 11.5 mph - N/A   Mostly Cloudy
1:36 AM 39.2 °F 32.5 °F 35.6 °F 87% 29.85 in 10.0 mi SE 10.4 mph - N/A   Partly Cloudy
1:56 AM 37.4 °F 30.3 °F 35.6 °F 93% 29.85 in 10.0 mi SE 10.4 mph - N/A   Partly Cloudy
2:16 AM 37.4 °F 30.3 °F 35.6 °F 93% 29.85 in 10.0 mi SSE 10.4 mph - N/A   Clear
2:36 AM 37.4 °F 30.8 °F 33.8 °F 87% 29.86 in 0.5 mi SE 9.2 mph - N/A   Mostly Cloudy
2:56 AM 37.4 °F 30.8 °F 33.8 °F 87% 29.86 in 0.8 mi SSE 9.2 mph - N/A   Mostly Cloudy
3:36 AM 35.6 °F 28.6 °F 33.8 °F 93% 29.86 in 8.0 mi SE 9.2 mph - N/A   Clear
3:56 AM 37.4 °F 30.8 °F 33.8 °F 87% 29.86 in 1.8 mi SSE 9.2 mph - N/A   Mostly Cloudy
4:16 AM 37.4 °F 30.3 °F 33.8 °F 87% 29.86 in 0.8 mi SE 10.4 mph - N/A   Overcast
4:36 AM 37.4 °F 31.4 °F 35.6 °F 93% 29.86 in 1.2 mi SE 8.1 mph - N/A   Mostly Cloudy
4:56 AM 35.6 °F 29.9 °F 33.8 °F 93% 29.86 in 10.0 mi SSE 6.9 mph - N/A   Clear
5:16 AM 35.6 °F 28.6 °F 33.8 °F 93% 29.86 in 2.5 mi SE 9.2 mph - N/A   Clear
5:36 AM 37.4 °F 30.3 °F 33.8 °F 87% 29.86 in 10.0 mi SE 10.4 mph - N/A   Scattered Clouds
5:56 AM 37.4 °F 30.8 °F 35.6 °F 93% 29.86 in 10.0 mi SE 9.2 mph - N/A   Scattered Clouds
6:16 AM 37.4 °F 31.4 °F 35.6 °F 93% 29.86 in 10.0 mi SE 8.1 mph - N/A   Mostly Cloudy
6:36 AM 37.4 °F 32.1 °F 33.8 °F 87% 29.85 in 10.0 mi SSE 6.9 mph - N/A   Scattered Clouds
6:56 AM 37.4 °F 32.1 °F 33.8 °F 87% 29.85 in 10.0 mi SSE 6.9 mph - N/A   Scattered Clouds
7:16 AM 37.4 °F 32.1 °F 33.8 °F 87% 29.85 in 10.0 mi SE 6.9 mph - N/A   Mostly Cloudy
7:36 AM 37.4 °F 32.8 °F 33.8 °F 87% 29.85 in 10.0 mi South 5.8 mph - N/A   Scattered Clouds
7:56 AM 37.4 °F 30.3 °F 33.8 °F 87% 29.85 in 8.0 mi South 10.4 mph - N/A   Scattered Clouds
8:16 AM 37.4 °F 30.8 °F 35.6 °F 93% 29.86 in 4.0 mi SSW 9.2 mph - N/A   Clear
8:36 AM 39.2 °F 33.0 °F 35.6 °F 87% 29.86 in 9.0 mi South 9.2 mph - N/A   Clear
8:56 AM 39.2 °F 33.0 °F 37.4 °F 93% 29.86 in 10.0 mi South 9.2 mph - N/A   Clear
9:36 AM 42.8 °F 38.6 °F 39.2 °F 87% 29.86 in 10.0 mi SSW 6.9 mph - N/A   Clear
9:56 AM 42.8 °F 38.6 °F 39.2 °F 87% 29.86 in 10.0 mi SSW 6.9 mph - N/A   Clear
10:16 AM 42.8 °F 38.6 °F 39.2 °F 87% 29.86 in 10.0 mi SSW 6.9 mph - N/A   Clear
10:36 AM 42.8 °F 38.6 °F 37.4 °F 81% 29.86 in 10.0 mi South 6.9 mph - N/A   Clear
10:56 AM 42.8 °F 39.3 °F 37.4 °F 81% 29.86 in 10.0 mi South 5.8 mph - N/A   Clear
11:16 AM 42.8 °F 39.3 °F 37.4 °F 81% 29.86 in 10.0 mi SSW 5.8 mph - N/A   Clear
11:56 AM 44.6 °F 43.1 °F 37.4 °F 76% 29.86 in 10.0 mi SSE 3.5 mph - N/A   Clear
12:16 PM 44.6 °F 42.2 °F 37.4 °F 76% 29.86 in 10.0 mi SSE 4.6 mph - N/A   Clear
12:56 PM 46.4 °F 42.9 °F 39.2 °F 76% 29.87 in 10.0 mi WSW 6.9 mph - N/A   Clear
1:16 PM 46.4 °F 44.3 °F 39.2 °F 76% 29.87 in 10.0 mi WNW 4.6 mph - N/A   Clear
1:36 PM 50.0 °F - 42.8 °F 76% 29.87 in 10.0 mi WNW 4.6 mph - N/A   Clear
1:56 PM 51.8 °F - 42.8 °F 71% 29.87 in 10.0 mi NW 4.6 mph - N/A   Scattered Clouds
2:16 PM 50.0 °F - 42.8 °F 76% 29.87 in 10.0 mi NNW 5.8 mph - N/A   Partly Cloudy
2:36 PM 50.0 °F - 42.8 °F 76% 29.86 in 10.0 mi North 4.6 mph - N/A   Partly Cloudy
2:56 PM 50.0 °F - 42.8 °F 76% 29.86 in 10.0 mi NW 5.8 mph - N/A   Clear
3:16 PM 51.8 °F - 42.8 °F 71% 29.86 in 10.0 mi WNW 6.9 mph - N/A   Clear
3:36 PM 51.8 °F - 42.8 °F 71% 29.85 in 10.0 mi NW 5.8 mph - N/A   Clear
3:56 PM 48.2 °F - 41.0 °F 76% 29.86 in 10.0 mi North 6.9 mph - N/A   Clear
4:16 PM 48.2 °F - 41.0 °F 76% 29.85 in 10.0 mi North 8.1 mph - N/A   Clear
4:36 PM 48.2 °F - 41.0 °F 76% 29.85 in 10.0 mi NNW 8.1 mph - N/A   Clear
4:56 PM 46.4 °F 41.9 °F 41.0 °F 81% 29.85 in 10.0 mi NNW 9.2 mph - N/A   Clear
5:16 PM 48.2 °F - 41.0 °F 76% 29.84 in 10.0 mi North 10.4 mph - N/A   Clear
5:36 PM 46.4 °F 41.1 °F 41.0 °F 81% 29.83 in 10.0 mi North 11.5 mph - N/A   Clear
6:16 PM 48.2 °F - 41.0 °F 76% 29.83 in 10.0 mi North 10.4 mph - N/A   Clear
6:36 PM 48.2 °F - 41.0 °F 76% 29.83 in 10.0 mi North 11.5 mph - N/A   Clear
6:56 PM 46.4 °F 41.5 °F 39.2 °F 76% 29.83 in 10.0 mi North 10.4 mph - N/A   Clear
7:16 PM 46.4 °F 41.1 °F 41.0 °F 81% 29.82 in 10.0 mi North 11.5 mph - N/A   Clear
7:36 PM 46.4 °F 40.4 °F 41.0 °F 81% 29.82 in 10.0 mi North 13.8 mph - N/A   Clear
7:56 PM 46.4 °F 40.7 °F 39.2 °F 76% 29.81 in 10.0 mi NNW 12.7 mph - N/A   Clear
8:16 PM 44.6 °F 38.1 °F 39.2 °F 81% 29.81 in 10.0 mi North 13.8 mph - N/A   Clear
8:36 PM 44.6 °F 38.4 °F 37.4 °F 76% 29.81 in 10.0 mi North 12.7 mph - N/A   Clear
8:56 PM 42.8 °F 37.0 °F 37.4 °F 81% 29.80 in 10.0 mi NNW 10.4 mph - N/A   Clear
9:16 PM 42.8 °F 37.5 °F 37.4 °F 81% 29.80 in 10.0 mi NNW 9.2 mph - N/A   Clear
9:36 PM 42.8 °F 38.0 °F 37.4 °F 81% 29.80 in 10.0 mi NNW 8.1 mph - N/A   Clear
9:56 PM 42.8 °F 37.5 °F 37.4 °F 81% 29.79 in 10.0 mi NNW 9.2 mph - N/A   Clear
10:16 PM 44.6 °F 40.2 °F 37.4 °F 76% 29.79 in 10.0 mi North 8.1 mph - N/A   Clear
10:36 PM 46.4 °F 42.4 °F 39.2 °F 76% 29.79 in 10.0 mi North 8.1 mph - N/A   Clear
10:56 PM 44.6 °F 40.2 °F 39.2 °F 81% 29.79 in 10.0 mi North 8.1 mph - N/A   Clear
11:16 PM 46.4 °F 42.4 °F 39.2 °F 76% 29.79 in 10.0 mi North 8.1 mph - N/A   Clear
11:36 PM 48.2 °F - 41.0 °F 76% 29.79 in 10.0 mi NNE 10.4 mph - N/A   Clear
11:56 PM 48.2 °F - 41.0 °F 76% 29.78 in 10.0 mi NNE 11.5 mph - N/A   Clear